This demonstration page uses our WeatherBlox Daily Observations layout. Learn more.

Left ArrowRight Arrow

53.62937, 11.41316

Hourly Observations for November 16, 2018

Temp ( °F °C ) Dew Point ( °F °C ) Humidity (%) Winds ( mph kmh ) Pressure ( in mb ) Visibility ( mi km ) Precip ( " mm )
6:50 am 06:50 Mostly Clear 41 5 37 3 87 87 SE 8 13 30.45 1031 7 11 N/A
7:20 am 07:20 Mostly Clear 39 4 37 3 93 93 SE 6 9 30.48 1032 7 11 N/A
7:50 am 07:50 Mostly Sunny 39 4 37 3 93 93 SE 6 9 30.48 1032 7 11 N/A
8:20 am 08:20 Mostly Sunny 39 4 36 2 87 87 SE 8 13 30.48 1032 7 11 N/A
8:50 am 08:50 Mostly Sunny 41 5 36 2 81 81 SE 8 13 30.50 1033 7 11 N/A
9:20 am 09:20 Mostly Sunny 41 5 37 3 87 87 SE 9 15 30.50 1033 7 11 N/A
9:50 am 09:50 Mostly Sunny 43 6 37 3 81 81 SE 7 11 30.50 1033 7 11 N/A
10:20 am 10:20 Mostly Sunny 43 6 37 3 81 81 SE 9 15 30.50 1033 7 11 N/A
10:50 am 10:50 Mostly Sunny 45 7 37 3 76 76 SE 9 15 30.50 1033 7 11 N/A
11:20 am 11:20 Mostly Sunny 45 7 37 3 76 76 SE 9 15 30.53 1034 7 11 N/A
11:50 am 11:50 Mostly Sunny 46 8 37 3 71 71 SE 7 11 30.50 1033 7 11 N/A
12:20 pm 12:20 Mostly Sunny 48 9 37 3 66 66 SE 9 15 30.50 1033 7 11 N/A
12:50 pm 12:50 Mostly Sunny 50 10 37 3 62 62 SE 9 15 30.50 1033 7 11 N/A
1:20 pm 13:20 Mostly Sunny 50 10 37 3 62 62 SE 9 15 30.50 1033 7 11 N/A
1:50 pm 13:50 Mostly Sunny 50 10 36 2 58 58 SE 9 15 30.50 1033 7 11 N/A
2:20 pm 14:20 Mostly Sunny 50 10 37 3 62 62 SE 8 13 30.53 1034 7 11 N/A
2:50 pm 14:50 Mostly Sunny 48 9 37 3 66 66 SE 7 11 30.53 1034 7 11 N/A
3:20 pm 15:20 Mostly Sunny 48 9 36 2 62 62 ESE 7 11 30.53 1034 7 11 N/A
3:50 pm 15:50 Mostly Sunny 48 9 37 3 66 66 ESE 7 11 30.53 1034 7 11 N/A
4:20 pm 16:20 Mostly Clear 46 8 36 2 66 66 ESE 6 9 30.53 1034 7 11 N/A
4:50 pm 16:50 Mostly Clear 45 7 36 2 71 71 E 5 7 30.53 1034 7 11 N/A
5:20 pm 17:20 Mostly Clear 45 7 36 2 71 71 E 5 7 30.53 1034 7 11 N/A
5:50 pm 17:50 Mostly Clear 43 6 36 2 76 76 ESE 6 9 30.53 1034 7 11 N/A
6:20 pm 18:20 Mostly Clear 43 6 36 2 76 76 ESE 6 9 30.56 1035 7 11 N/A
6:50 pm 18:50 Mostly Clear 43 6 36 2 76 76 E 5 7 30.56 1035 7 11 N/A

Powered by AerisWeather